Location: Newark
(45.8667°N, 9.7333°E)
Time: 18:05:50
(UTC+00:00)

Transit 4A - Pass Details

Date: 24 January 2020
Orbit: 872 x 973 km, 66.8° (Epoch: 22 February)

Event Time Altitude Azimuth Distance (km) Brightness Sun altitude
Rises 07:41:05 0° 247° (WSW) 3,536 10.6 6.4°
Reaches altitude 10° 07:43:58 10° 259° (WSW) 2,581 9.9 6.8°
Maximum altitude 07:49:06 29° 318° (NW) 1,572 8.7 7.5°
Drops below altitude 10° 07:54:11 10° 18° (NNE) 2,545 10.0 8.2°
Sets 07:57:01 0° 30° (NNE) 3,479 10.8 8.6°
